This demonstration page uses our WeatherBlox Daily Observations layout. Learn more.

Left ArrowRight Arrow

Hourly Observations for September 1, 2015

Temp ( °F °C ) Dew Point ( °F °C ) Humidity (%) Winds ( mph kmh ) Pressure ( in mb ) Visibility ( mi km ) Precip ( " mm )
12:15 am 00:15 Clear 71 21.6 64 17.5 78 78 ESE 5 7 29.83 1010 10 16 N/A
12:35 am 00:35 Partly Cloudy with Nearby Thunderstorms 70 21.2 63 17.1 78 78 SE 3 6 29.83 1010 10 16 N/A
12:55 am 00:55 Partly Cloudy 70 21 62 16.8 77 77 Calm 29.85 1011 10 16 N/A
1:15 am 01:15 Clear 68 19.8 63 17.2 85 85 ENE 3 6 29.85 1011 10 16 N/A
1:35 am 01:35 Clear 68 20.2 63 17 82 82 E 3 6 29.83 1010 10 16 N/A
1:55 am 01:55 Clear 69 20.4 62 16.5 78 78 SSE 5 7 29.83 1010 10 16 N/A
2:15 am 02:15 Partly Cloudy 71 21.5 61 15.9 71 71 S 5 7 29.83 1010 10 16 N/A
2:35 am 02:35 Partly Cloudy 70 21 60 15.5 71 71 SSW 5 7 29.83 1010 10 16 N/A
2:55 am 02:55 Clear 70 21 59 15.2 70 70 S 6 9 29.83 1010 10 16 N/A
3:15 am 03:15 Clear 71 21.5 59 14.9 66 66 S 5 7 29.83 1010 10 16 N/A
3:35 am 03:35 Clear with Nearby Thunderstorms 73 22.9 57 14.1 58 58 WSW 3 6 29.80 1009 10 16 N/A
3:55 am 03:55 Clear with Nearby Thunderstorms 71 21.4 58 14.6 65 65 S 5 7 29.83 1010 10 16 N/A
4:15 am 04:15 Clear 72 22 58 14.3 62 62 Calm 29.83 1010 10 16 N/A
4:35 am 04:35 Clear with Thunderstorms 71 21.4 58 14.5 65 65 Calm 29.83 1010 10 16 N/A
4:55 am 04:55 Clear with Nearby Thunderstorms 70 21.1 58 14.5 66 66 SW 7 11 29.83 1010 10 16 N/A
5:15 am 05:15 Clear 70 21.1 58 14.5 66 66 SW 5 7 29.83 1010 10 16 N/A
5:35 am 05:35 Partly Cloudy 67 19.6 60 15.5 77 77 E 3 6 29.83 1010 10 16 N/A
5:55 am 05:55 Partly Cloudy with Light Rain 67 19.6 60 15.7 78 78 ENE 3 6 29.83 1010 10 16 N/A
6:15 am 06:15 Clear 68 20 60 15.5 75 75 Calm 29.83 1010 10 16 N/A
6:35 am 06:35 Clear 67 19.5 60 15.7 79 79 ENE 6 9 29.80 1009 10 16 N/A
6:55 am 06:55 Clear 68 20.1 60 15.3 74 74 S 7 11 29.83 1010 10 16 N/A
7:15 am 07:15 Sunny 66 19.1 60 15.5 80 80 SSE 5 7 29.88 1012 10 16 N/A
7:35 am 07:35 Sunny 67 19.3 60 15.5 79 79 Calm 29.88 1012 10 16 N/A
7:55 am 07:55 Sunny 67 19.5 60 15.7 79 79 SSE 6 9 29.85 1011 10 16 N/A
8:15 am 08:15 Sunny 68 20.2 61 16 77 77 SSE 6 9 29.85 1011 10 16 N/A
8:35 am 08:35 Sunny 70 21 62 16.5 76 76 S 5 7 29.85 1011 10 16 N/A
8:55 am 08:55 Sunny 71 21.7 61 16.3 72 72 S 5 7 29.85 1011 10 16 N/A
9:15 am 09:15 Sunny 71 21.6 62 16.5 73 73 S 5 7 29.85 1011 10 16 N/A
9:35 am 09:35 Sunny 71 21.8 62 16.5 72 72 Calm 29.85 1011 10 16 N/A
9:55 am 09:55 Sunny 74 23.1 62 16.9 68 68 SSW 5 7 29.83 1010 10 16 N/A
10:15 am 10:15 Sunny 75 23.9 62 16.8 65 65 WSW 3 6 29.83 1010 10 16 N/A
10:35 am 10:35 Sunny 76 24.7 63 17 62 62 WSW 3 6 29.83 1010 10 16 N/A
10:55 am 10:55 Sunny 78 25.3 64 17.6 62 62 NW 3 6 29.83 1010 10 16 N/A
11:15 am 11:15 Sunny 78 25.6 64 17.7 62 62 Calm 29.83 1010 10 16 N/A
11:35 am 11:35 Sunny 80 26.5 64 17.8 59 59 W 5 7 29.80 1009 10 16 N/A
11:55 am 11:55 Sunny 80 26.4 64 17.7 59 59 Calm 29.83 1010 10 16 N/A
12:15 pm 12:15 Sunny 81 27.3 65 18.4 58 58 Calm 29.80 1009 10 16 N/A
12:35 pm 12:35 Sunny 82 28 64 17.5 53 53 Calm 29.80 1009 10 16 N/A
12:55 pm 12:55 Sunny 84 29 62 16.5 47 47 Calm 29.77 1008 10 16 N/A
1:15 pm 13:15 Sunny 86 30 62 16.4 44 44 SSW 5 7 29.74 1007 7 11 N/A
1:35 pm 13:35 Hazy 87 30.6 62 16.5 43 43 Calm 29.74 1007 4 6 N/A
1:55 pm 13:55 Sunny 87 30.7 61 15.9 41 41 SW 5 7 29.74 1007 10 16 N/A
2:15 pm 14:15 Sunny 89 31.4 62 16.4 40 40 SSW 6 9 29.74 1007 10 16 N/A
2:35 pm 14:35 Sunny 89 31.9 59 15.2 36 36 WSW 3 6 29.74 1007 10 16 N/A
2:55 pm 14:55 Sunny 90 32.4 57 14.1 33 33 WNW 3 6 29.74 1007 10 16 N/A
3:15 pm 15:15 Sunny 90 32.2 58 14.6 34 34 E 5 7 29.74 1007 10 16 N/A
3:35 pm 15:35 Sunny 89 31.8 66 19.1 47 47 SSE 7 11 29.74 1007 10 16 N/A
3:55 pm 15:55 Partly Cloudy 90 32.2 65 18.3 44 44 SSE 9 15 29.74 1007 10 16 N/A
4:15 pm 16:15 Sunny 89 31.6 66 18.8 47 47 SSE 9 15 29.74 1007 10 16 N/A
4:35 pm 16:35 Sunny 88 31.1 66 18.9 48 48 SSE 10 17 29.74 1007 10 16 N/A
4:55 pm 16:55 Sunny 90 32 65 18.3 44 44 SE 13 20 29.71 1006 10 16 N/A
5:15 pm 17:15 Sunny 89 31.7 64 17.7 43 43 SE 15 24 29.71 1006 10 16 N/A
5:35 pm 17:35 Sunny 89 31.6 65 18.1 45 45 ESE 12 19 29.71 1006 10 16 N/A
5:55 pm 17:55 Sunny 89 31.4 65 18.1 45 45 SE 13 20 29.71 1006 10 16 N/A
6:15 pm 18:15 Sunny 88 31.2 64 18 45 45 SE 12 19 29.71 1006 10 16 N/A
6:35 pm 18:35 Sunny 88 31 64 17.9 46 46 SE 12 19 29.71 1006 10 16 N/A
6:55 pm 18:55 Sunny 88 31 66 19.1 49 49 ESE 9 15 29.71 1006 7 11 N/A
7:15 pm 19:15 Sunny 86 30.2 65 18.2 49 49 SE 10 17 29.71 1006 10 16 N/A
7:35 pm 19:35 Sunny 85 29.5 65 18.4 51 51 SE 9 15 29.71 1006 10 16 N/A
7:55 pm 19:55 Sunny 84 28.7 65 18.5 54 54 SE 9 15 29.74 1007 10 16 N/A
8:15 pm 20:15 Clear 82 27.5 66 18.9 59 59 ESE 7 11 29.74 1007 10 16 N/A
8:35 pm 20:35 Clear 79 26.3 67 19.4 66 66 SE 7 11 29.74 1007 10 16 N/A
8:55 pm 20:55 Clear 78 25.7 67 19.5 69 69 ESE 6 9 29.77 1008 10 16 N/A
9:15 pm 21:15 Clear 77 25 67 19.5 72 72 SE 6 9 29.80 1009 10 16 N/A
9:35 pm 21:35 Clear 76 24.6 67 19.5 73 73 ESE 5 7 29.80 1009 10 16 N/A
9:55 pm 21:55 Clear 72 22.4 66 18.9 81 81 SE 5 7 29.83 1010 10 16 N/A
10:15 pm 22:15 Clear 73 23 67 19.2 79 79 SSE 3 6 29.80 1009 10 16 N/A
10:35 pm 22:35 Clear 73 22.7 67 19.2 81 81 SE 5 7 29.80 1009 10 16 N/A
10:55 pm 22:55 Clear 74 23.1 67 19.2 79 79 SE 3 6 29.80 1009 10 16 N/A
11:15 pm 23:15 Clear 72 22.2 65 18.6 80 80 SE 3 6 29.83 1010 10 16 N/A
11:35 pm 23:35 Clear 72 22.1 66 18.9 82 82 Calm 29.83 1010 10 16 N/A
11:55 pm 23:55 Clear 69 20.5 65 18.2 87 87 Calm 29.83 1010 10 16 N/A

Powered by AerisWeather